Voltar ao catálogo

BREEZE-M DEB

LostHEO
NORAD 34235·DEBRIS·🇷🇺 Russia

Lançado Feb 28, 2006 de Baikonur Cosmodrome

Loading…

Próximas Passagens (próximas 24 horas)

TLE

ObsoletoSource: Space-Track

Época: Jul 8, 2026, 11:59 UTC

1 34235U 06006BA  26189.49994402  .00003592  00000-0  36784-2 0  9995
2 34235  51.7067 350.2373 4940998 146.4904 257.9579  5.53298869 41610

Acompanhe BREEZE-M DEB em tempo real com AllMySat

Download on the App Store